This is the latest recevied weather packets stored in our database for station/object K0VSC-1. If no packets are shown the sender has not sent any weather packets the latest 10 day(s).
| Time | Temp. | Humidity | Pressure | Rain* | Wind** | Luminosity | Snow |
|---|---|---|---|---|---|---|---|
| 1777899488 | 10.56° C | 61% | 996.8 hPa | 0 mm | - | 160 W/m² | - |
| 1777899188 | 10.56° C | 61% | 996.6 hPa | 0 mm | - | 171 W/m² | - |
| 1777898888 | 10° C | 61% | 996.8 hPa | 0 mm | - | 125 W/m² | - |
| 1777898588 | 10° C | 61% | 996.6 hPa | 0 mm | - | 109 W/m² | - |
| 1777898288 | 10° C | 61% | 996.6 hPa | 0 mm | - | 84 W/m² | - |
| 1777897988 | 10° C | 61% | 996.5 hPa | 0 mm | - | 111 W/m² | - |
| 1777897688 | 10° C | 61% | 996.5 hPa | 0 mm | - | 128 W/m² | - |
| 1777897388 | 10° C | 61% | 996.4 hPa | 0 mm | - | 148 W/m² | - |
| 1777897089 | 10.56° C | 61% | 996.2 hPa | 0 mm | - | 127 W/m² | - |
| 1777896788 | 10.56° C | 60% | 996.1 hPa | 0 mm | - | 63 W/m² | - |
| 1777896488 | 10.56° C | 61% | 996 hPa | 0 mm | - | 109 W/m² | - |
| 1777896188 | 10° C | 61% | 996.1 hPa | 0 mm | - | 93 W/m² | - |
| 1777895889 | 10.56° C | 61% | 996 hPa | 0 mm | - | 58 W/m² | - |
| 1777895588 | 10.56° C | 60% | 995.8 hPa | 0 mm | - | 47 W/m² | - |
| 1777895289 | 10.56° C | 60% | 995.8 hPa | 0 mm | - | 40 W/m² | - |
| 1777894989 | 10.56° C | 60% | 995.6 hPa | 0 mm | - | 39 W/m² | - |
| 1777894689 | 10.56° C | 61% | 995.6 hPa | 0 mm | - | 32 W/m² | - |
| 1777894388 | 10.56° C | 62% | 995.4 hPa | 0 mm | - | 25 W/m² | - |
| 1777894089 | 10.56° C | 62% | 995.3 hPa | 0 mm | - | 18 W/m² | - |
| 1777893831 | 10.56° C | 62% | 995.3 hPa | 0 mm | - | 11 W/m² | - |
| 1777893789 | 10.56° C | 62% | 995.3 hPa | 0 mm | - | 11 W/m² | - |
| 1777893489 | 10.56° C | 61% | 995.2 hPa | 0 mm | - | 7 W/m² | - |
| 1777893189 | 10.56° C | 61% | 995.1 hPa | 0 mm | - | 5 W/m² | - |
| 1777892889 | 11.11° C | 61% | 995.2 hPa | 0 mm | - | 0 W/m² | - |
| 1777892589 | 11.11° C | 60% | 995.2 hPa | 0 mm | - | 0 W/m² | - |
* Rain latest hour (hover to see other rain measurements)
** Current wind speed in m/s (hover to see current wind gust speed)